#timestamp,LO_Frequency,Hit,StdDev 
1507417215.6,286046999.0,N
1507417235.4,286046998.6,N
1507417255.3,286047000.8,N
1507417275.1,286047000.9,N
1507417276.0,286047000.9,N
1507417295.8,286047000.5,N
1507417315.7,286046998.6,N
1507417335.5,286046998.1,N
1507417355.4,286046998.5,N
1507417375.2,286046998.2,N
1507417395.0,286046998.8,N
1507417395.9,286046998.8,N
1507417415.8,286046998.2,N
1507417435.6,286046998.6,N
1507417455.4,286047001.1,N
1507417475.3,286046999.7,N
1507417495.1,286047000.6,N
1507417515.9,286047002.1,N
1507417535.7,286047001.3,N
1507417555.5,286047001.4,N
1507417575.4,286047004.3,Y
1507417595.2,286047003.9,P
1507417615.1,286047001.8,N
1507417616.0,286047001.8,N
1507417635.8,286047002.4,N
1507417655.6,286047002.7,N
1507417675.5,286047000.8,N
1507417695.3,286046998.6,N
1507417715.1,286047000.7,N
1507417735.9,286046998.8,N
1507417755.7,286047000.8,N
1507417775.6,286046999.4,N
1507417795.4,286046999.1,N
1507417815.2,286046998.8,N
1507417835.1,286046998.4,N
1507417836.0,286046998.4,N
1507417855.8,286046998.9,N
1507417875.6,286046998.6,N
1507417895.5,286046998.3,N
1507417915.3,286046999.4,N
1507417935.2,286046998.1,N
1507417955.9,286047000.0,N
1507417975.7,286046999.9,N
1507417995.6,286047001.0,N
1507418015.4,286047000.3,N
1507418035.2,286047000.2,N
1507418055.1,286047002.1,N
1507418056.0,286047002.1,N
1507418075.8,286047000.6,N
1507418095.7,286047000.1,N
1507418115.5,286047000.9,N
1507418135.3,286046999.7,N
1507418155.2,286047000.5,N
1507418175.0,286047000.7,N
1507418175.9,286047000.7,N
1507418195.8,286047000.7,N
1507418215.6,286046998.6,N
1507418235.4,286046998.7,N
1507418255.3,286047001.1,N
1507418275.1,286047001.1,N
1507418295.8,286047000.9,N
1507418315.7,286047001.0,N
1507418335.5,286047000.7,N
1507418355.4,286047000.4,N
1507418375.2,286047000.8,N
1507418395.0,286047000.2,N
1507418395.9,286047000.2,N
1507418415.8,286047002.4,N
1507418435.6,286047002.6,N
1507418455.4,286047002.7,N
1507418475.3,286047000.0,N
1507418495.1,286047000.9,N
1507418515.9,286047000.5,N
1507418535.7,286046999.8,N
1507418555.5,286046999.9,N
1507418575.4,286047000.9,N
1507418595.2,286047002.8,N
1507418615.1,286047000.0,N
1507418616.0,286047000.0,N
1507418635.8,286047002.2,N
1507418655.6,286046999.8,N
1507418675.5,286047002.4,N
1507418695.3,286047001.8,N
1507418715.1,286047002.6,N
1507418735.9,286047001.5,N
1507418755.7,286047004.4,Y
1507418775.6,286047002.3,P
1507418795.4,286047002.5,P
1507418815.2,286047002.8,P
1507418835.1,286047000.1,N
1507418836.0,286047000.1,N
1507418855.8,286047000.0,N
1507418875.6,286046998.4,N
1507418895.5,286046998.7,N
1507418915.3,286046998.3,N
1507418935.2,286046999.6,N
1507418955.9,286046999.2,N
1507418975.7,286046998.4,N
1507418995.6,286046998.4,N
1507419015.4,286046996.6,N
1507419035.2,286046999.3,N
1507419055.1,286046997.6,N
1507419056.0,286046997.6,N
1507419075.8,286046996.1,N
1507419095.7,286046997.6,N
1507419115.5,286046995.3,N
1507419135.3,286046995.1,N
1507419155.2,286046997.7,N
1507419175.0,286046999.5,N
1507419175.9,286046999.5,N
1507419195.8,286046998.7,N
1507419215.6,286046998.9,N
1507419235.4,286046998.9,N
1507419255.3,286046998.7,N
1507419275.1,286046998.7,N
1507419295.8,286046998.1,N
1507419315.7,286046998.1,N
1507419335.5,286046999.1,N
1507419355.4,286046999.6,N
1507419375.2,286046997.7,N
1507419395.0,286046999.6,N
1507419395.9,286046999.6,N
1507419415.8,286046999.4,N
1507419435.6,286046999.6,N
1507419455.4,286046996.7,N
1507419475.3,286046999.6,N
1507419495.1,286046999.5,N
1507419515.9,286046996.7,N
1507419535.7,286046996.8,N
1507419555.5,286046997.7,N
1507419575.4,286046997.1,N
1507419595.2,286046997.6,N
1507419615.0,286046997.4,N
1507419615.9,286046997.4,N
1507419635.8,286046997.5,N
1507419655.6,286046996.7,N
1507419675.5,286046997.2,N
1507419695.3,286046995.7,Y
1507419715.1,286046996.6,P
1507419735.9,286046997.0,P
1507419755.7,286046997.4,P
1507419775.6,286046997.4,Y
1507419795.4,286046998.2,P
1507419815.2,286047000.7,N
1507419835.1,286046999.9,N
1507419836.0,286046999.9,N
1507419855.8,286047000.1,N
1507419875.7,286047002.0,N
1507419895.5,286047002.6,N
1507419915.3,286047002.3,N
1507419935.2,286047001.5,N
1507419955.0,286047002.4,N
1507419955.9,286047002.4,N
1507419975.7,286047000.2,N
1507419995.6,286047000.3,N
1507420015.4,286046998.2,N
1507420035.3,286046997.0,N
1507420055.1,286046997.0,N
1507420056.0,286046997.0,N
1507420075.8,286046996.6,N
1507420095.7,286046998.3,N
1507420115.5,286046999.7,N
1507420135.4,286047002.4,N
1507420155.2,286047001.5,N
1507420175.0,286047001.5,N
1507420175.9,286047001.5,N
1507420195.8,286047001.6,N
1507420215.6,286046999.9,N
1507420235.4,286047001.2,N
1507420255.3,286046998.5,N
1507420275.1,286047000.5,N
1507420295.9,286047000.9,N
1507420315.7,286046999.7,N
1507420335.5,286047000.7,N
1507420355.4,286047001.0,N
1507420375.2,286047000.5,N
1507420395.0,286047000.5,N
1507420395.9,286047000.5,N
1507420415.8,286047002.7,N
1507420435.6,286047002.8,N
1507420455.5,286047001.5,N
1507420475.3,286047001.3,N
1507420495.1,286047002.6,N
1507420515.9,286046998.5,N
1507420535.7,286046999.6,N
1507420555.6,286046998.1,N
1507420575.4,286047001.0,N
1507420595.2,286047000.2,N
1507420615.1,286047001.0,N
1507420616.0,286047001.0,N
1507420665.8,286046998.2,E
1507420675.7,286046999.9,N
1507420695.6,286047002.0,P
1507420715.4,286047002.3,N
1507420735.3,286047002.0,N
1507420755.1,286047002.5,N
1507420756.0,286047002.5,N
1507420775.8,286047002.2,N
1507420795.7,286047001.6,N
